EW8775 Weather Reports


Display with metric or nautical units.
time (UTC)temp
F
wind
direction
speed
MPH
gust
MPH
rain 1hr
in
rain 24hr
in
rain mn
in
humidity
%
barometer
mb
20260906073016 76 135 3.0 13.0 0.00 0.00 0.00 24 1016.4
20260906070016 77 135 5.0 16.0 0.00 0.00 0.00 23 1016.6
20260906063016 77 135 5.0 15.0 0.00 0.00 0.00 24 1016.4
20260906060016 77 135 5.0 15.0 0.00 0.00 0.00 23 1015.9
20260906053017 77 113 4.0 13.0 0.00 0.00 0.00 23 1015.7
20260906050017 78 135 3.0 12.0 0.00 0.00 0.00 22 1015.7
20260906043017 78 135 4.0 18.0 0.00 0.00 0.00 21 1015.3
20260906040017 78 113 4.0 12.0 0.00 0.00 0.00 21 1015.1
20260906033017 78 113 2.0 10.0 0.00 0.00 0.00 22 1014.2
20260906030017 79 113 3.0 15.0 0.00 0.00 0.00 21 1013.4
20260906023017 79 113 2.0 10.0 0.00 0.00 0.00 23 1012.8
20260906020057 81 158 1.0 11.0 0.00 0.00 0.00 24 1013.4
20260906013017 83 180 3.0 12.0 0.00 0.00 0.00 22 1013.7
20260906010037 84 180 2.0 10.0 0.00 0.00 0.00 19 1013.8
20260906003037 85 180 2.0 9.0 0.00 0.00 0.00 17 1013.8
20260906000016 86 180 2.0 11.0 0.00 0.00 0.00 15 1014.1
20260905233016 85 180 1.0 9.0 0.00 0.00 0.00 17 1014.8
20260905230016 86 180 2.0 11.0 0.00 0.00 0.00 16 1015.0
20260905223016 87 180 2.0 14.0 0.00 0.00 0.00 17 1015.1
20260905220056 87 158 2.0 13.0 0.00 0.00 0.00 17 1015.8
20260905213016 85 180 3.0 14.0 0.00 0.00 0.00 19 1015.8
20260905210016 84 180 5.0 14.0 0.00 0.00 0.00 22 1016.1
20260905203056 83 180 4.0 14.0 0.00 0.00 0.00 21 1016.3
20260905200016 83 158 3.0 13.0 0.00 0.00 0.00 24 1016.7
20260905193016 82 180 3.0 12.0 0.00 0.00 0.00 24 1017.1
20260905190016 81 180 4.0 16.0 0.00 0.00 0.00 24 1017.4
20260905183016 80 180 4.0 12.0 0.00 0.00 0.00 23 1017.9
20260905180016 79 180 4.0 13.0 0.00 0.00 0.00 25 1018.1
20260905173056 78 180 3.0 15.0 0.00 0.00 0.00 24 1018.3
20260905170056 77 180 5.0 15.0 0.00 0.00 0.00 24 1018.0
20260905163015 76 180 3.0 13.0 0.00 0.00 0.00 25 1018.1
20260905160017 75 180 3.0 11.0 0.00 0.00 0.00 28 1017.9
20260905153017 74 135 2.0 11.0 0.00 0.00 0.00 30 1017.6
20260905150017 71 113 1.0 12.0 0.00 0.00 0.00 30 1017.4
20260905143057 68 113 2.0 10.0 0.00 0.00 0.00 33 1016.9
20260905140022 67 0.0 8.0 0.00 0.00 0.00 38 1016.7
20260905133057 70 113 1.0 11.0 0.00 0.00 0.00 32 1016.9
20260905130017 69 90 1.0 8.0 0.00 0.00 0.00 30 1016.4
20260905123057 70 90 1.0 10.0 0.00 0.00 0.00 28 1016.4
20260905120017 71 113 1.0 10.0 0.00 0.00 0.00 26 1016.8
20260905113017 71 113 2.0 11.0 0.00 0.00 0.00 26 1016.9
20260905110017 73 90 3.0 12.0 0.00 0.00 0.00 24 1017.1
20260905103037 72 113 2.0 11.0 0.00 0.00 0.00 27 1016.7
20260905100017 73 113 4.0 13.0 0.00 0.00 0.00 28 1016.7
20260905093057 73 113 4.0 15.0 0.00 0.00 0.00 29 1016.3
20260905090057 73 113 4.0 13.0 0.00 0.00 0.00 32 1016.0
20260905083016 73 113 3.0 12.0 0.00 0.00 0.00 33 1015.6
20260905080017 73 113 2.0 10.0 0.00 0.00 0.00 32 1015.3